Regional Weather Roundup
Issued by NWS

Home | Current Version | Previous Version | Graphics & Text | Print | Product List | Glossary On
Versions: 1 2 3 4 5 6 7 8 9 10 11 12 13 14 15 16 17 18 19 20 21 22 23 24 25 26 27 28 29 30 31 32 33 34 35 36 37 38 39 40 41 42 43 44 45 46 47 48 49 50
000
ASUS45 KBOI 310210
RWRID

IDAHO REGIONAL WEATHER ROUNDUP
NATIONAL WEATHER SERVICE BOISE ID
800 PM MDT THU JUL 30 2015

NOTE: "FAIR" INDICATES FEW OR NO CLOUDS BELOW 12000 FEET
WITH NO SIGNIFICANT WEATHER AND/OR OBSTRUCTIONS TO VISIBILITY

IDZ012-014-310300-
SOUTHWEST IDAHO


CITY           SKY/WX    TMP DP  RH WIND       PRES   REMARKS
BOISE          SUNNY     92  31  11 W8        30.11F
CALDWELL       SUNNY     93  37  14 CALM      30.10S
MOUNTAIN HOME  SUNNY     93  23   8 NW13      30.11S
$$

IDZ016-017-310300-
SOUTHCENTRAL IDAHO


CITY           SKY/WX    TMP DP  RH WIND       PRES   REMARKS
BURLEY         CLEAR     83  39  21 W8        30.19S
JEROME         CLEAR     85  46  25 CALM      30.20S
TWIN FALLS     CLEAR     89  29  11 NE3       30.18F
$$

IDZ019>023-310300-
SOUTHEAST IDAHO


CITY           SKY/WX    TMP DP  RH WIND       PRES   REMARKS
IDAHO FALLS    CLEAR     85  31  14 SE7       30.26S
POCATELLO      CLEAR     86  30  13 E7        30.23F
REXBURG        CLEAR     84  26  12 CALM      30.27F
$$

IDZ006-010-011-018-031-032-310300-
CENTRAL IDAHO MOUNTAINS


CITY           SKY/WX    TMP DP  RH WIND       PRES   REMARKS
MCCALL         SUNNY     83  33  16 S6        30.25F
HAILEY         CLEAR     81  36  19 SW8       30.28S
STANLEY          N/A     80  23  12 N5        30.36S
SALMON         CLEAR     82  48  30 NW5       30.15S
CHALLIS        CLEAR     86  36  16 NW5       30.23S
$$

IDZ002-004-006-007-026-310300-
NORTHERN IDAHO


CITY           SKY/WX    TMP DP  RH WIND       PRES   REMARKS
LEWISTON         N/A    100  30   8 N3        29.99F HX  94
LOWELL           N/A     78  48  34 VRB3      30.01F
COEUR D`ALENE  SUNNY     91  34  13 W5        30.06S
MULLAN PASS    SUNNY     73  31  21 CALM      30.35F
$$



USA.gov is the U.S. government's official web portal to all federal, state and local government web resources and services.